Regional Weather Roundup
Issued by NWS

Home | Current Version | Previous Version | Text Only | Print | Product List | Glossary Off
Versions: 1 2 3 4 5 6 7 8 9 10 11 12 13 14 15 16 17 18 19 20 21 22 23 24 25 26 27 28 29 30 31 32 33 34 35 36 37 38 39 40 41 42 43 44 45 46 47 48 49 50

000
ASUS43 KIND 302309
RWRIN

WEATHER ROUNDUP FOR INDIANA
NATIONAL WEATHER SERVICE INDIANAPOLIS IN
700 PM EDT TUE SEP 30 2014

NOTE: "FAIR" INDICATES FEW OR NO CLOUDS BELOW 12,000 FEET WITH NO
SIGNIFICANT WEATHER AND/OR OBSTRUCTIONS TO VISIBILITY.

* - STATION DOES NOT REPORT WEATHER SUCH AS PRECIPITATION OR FOG.

+ - STATION NOT QUALITY CONTROLLED BY THE NATIONAL WEATHER SERVICE.
    USE DATA WITH CAUTION...ESPECIALLY DEWPOINT AND RELATIVE
    HUMIDITY OBSERVATIONS.

INZ001>003-010>013-019-020-010000-
NORTHWEST INDIANA

CITY           SKY/WX    TMP DP  RH WIND       PRES   REMARKS
GARY /AIRPORT/ CLOUDY    57  48  72 N17       30.01S
KNOX *+        CLOUDY    55  45  70 N5        29.99S
LA PORTE +     CLOUDY    55  47  75 N6        30.00S
MICHIGAN CITY+ CLOUDY    52  45  76 CALM      30.01S
MONTICELLO +   CLEAR     59  49  69 N8        29.97R
RENSSELAER +   PTCLDY    55  50  82 N10G16    29.99S
VALPARAISO     CLOUDY    54  46  74 VRB3      30.01R

$$

LMZ046-743>745-010000-
SOUTHERN LAKE MICHIGAN

STATION/POSITION TIME  TEMP WIND        PRES
                       AIR  DIR/SP/G
                 (UTC) (F)  (DEG/KT/KT) (MB)
MICHIGAN CITY    2300   54  360/ 11/ 14   N/A

$$

INZ004-005-014>016-021>024-010000-
NORTH CENTRAL INDIANA

CITY           SKY/WX    TMP DP  RH WIND       PRES   REMARKS
ELKHART        CLOUDY    54  45  71 CALM      30.01S
LOGANSPORT +   CLEAR     55  46  71 N8        29.98R
PERU/GRISSOM   CLEAR     58  52  79 NE9       29.97R
ROCHESTER +    CLOUDY    59  46  63 NE9       29.98S
SOUTH BEND     CLOUDY    55  45  67 CALM      30.01S
WARSAW +       CLOUDY    54  46  76 NE5       30.00S

$$

INZ006>009-017-018-025>027-010000-
NORTHEAST INDIANA

CITY           SKY/WX    TMP DP  RH WIND       PRES   REMARKS
ANGOLA *+      CLOUDY    55  48  76 CALM      29.99R
AUBURN +       PTCLDY    55  46  71 CALM      30.00R
FORT WAYNE     MOCLDY    55  47  74 N6        30.00R
HUNTINGTON +   PTCLDY    53  47  79 NE5       29.99S

$$

INZ028-029-035-036-043>045-051>053-010000-
WEST CENTRAL INDIANA

CITY           SKY/WX    TMP DP  RH WIND       PRES   REMARKS
CRAWFORDSVL +    N/A     63  48  59 N6        29.95
GREENCASTLE +  CLOUDY    64  54  68 N8        29.94S
LAFAYETTE      PTCLDY    62  48  60 N10       29.96R
TERRE HAUTE    PTCLDY    71  56  58 N6        29.93R

$$

INZ030>032-037>040-046>048-054>057-064-065-010000-
CENTRAL INDIANA

CITY           SKY/WX    TMP DP  RH WIND       PRES   REMARKS
CP ATTERBURY + CLOUDY    70  55  60 N5        29.93S
COLUMBUS       PTCLDY    68  55  64 NE7       29.93
FRANKFORT +    CLEAR     63  49  60 NE6       29.98R
GREENWOOD *+   MOCLDY    66  50  55 N5        29.95
INDIANAPOLIS   MOCLDY    65  52  62 NW6       29.93S
-EAGLE CREEK   PTCLDY    67  51  56 N5        29.94R
KOKOMO *+      CLEAR     59  46  63 NE12      29.97R
MARION +       CLEAR     57  46  66 NE9       29.98R
MT COMFORT *+  CLEAR     64  43  45 N5        29.94S
SHELBYVILLE    PTCLDY    68  53  58 N3        29.93R
ZIONSVILLE +   PTCLDY    62  47  59 N6        29.96R

$$

INZ033-034-041-042-049-050-058-059-010000-
EAST CENTRAL INDIANA

CITY           SKY/WX    TMP DP  RH WIND       PRES   REMARKS
MUNCIE         CLEAR     59  48  67 NE12      29.97R

$$

INZ060-061-067>069-081>083-085>088-010000-
SOUTHWEST INDIANA

CITY           SKY/WX    TMP DP  RH WIND       PRES   REMARKS
EVANSVILLE     CLEAR     81  58  45 N5        29.89R
WASHINGTON +   CLEAR     74  61  63 N5        29.90S

$$

INZ062-063-066-070>080-084-089>092-010000-
SOUTH CENTRAL AND SOUTHEAST INDIANA

CITY           SKY/WX    TMP DP  RH WIND       PRES   REMARKS
BLOOMINGTON    PTCLDY    72  58  61 N8        29.92S

$$




USA.gov is the U.S. government's official web portal to all federal, state and local government web resources and services.